Home > Weather > Wood Buffalo > Past weeks

Flag for Canada Past Weather in Wood Buffalo, Alberta, Canada — Yesterday and Last 2 Weeks

Now
57 °F

Sunny.


Feels Like: 55 °F
Forecast: 41 / 62 °F
Wind: 8 mph from Northwest

Location: Fort Mcmurray

Current Time: Aug 29, 2016 at 1:55:37 PM

Latest Report: Aug 29, 2016 at 1:00 PM


Visibility: 9 mi

Pressure: 30.29 "Hg

Humidity: 51%

Dew Point: 39 °F

Location of Wood BuffaloLocation

Past Weather in Wood Buffalo — Graph

°F

Wood Buffalo Temperature Yesterday

Maximum temperature yesterday: 59 °F (at 5:00 PM)
Minimum temperature yesterday: 45 °F (at 7:55 AM)
Average temperature yesterday: 50 °F

High & Low Weather Summary for the Past Weeks

 TemperatureHumidityPressure
High81 °F (Aug 15, 3:00 PM)100% (Aug 15, 5:00 AM)30.30 "Hg (Aug 15, 5:00 AM)
Low39 °F (Aug 29, 4:00 AM)28% (Aug 15, 4:00 PM)29.57 "Hg (Aug 27, 2:00 PM)
Average60 °F71%29.93 "Hg
* Reported Aug 14 12:00 PM — Aug 29 12:00 PM, Wood Buffalo, Weather by CustomWeather, © 2016

Note: Actual official high and low records may vary slightly from our data, if they occured in-between our weather recording intervals... More about our weather records

Advertising

Wood Buffalo Weather History for the Previous 24 Hours

Scroll right to see more
 ConditionsComfort  
Time TempWeatherWind HumidityBarometerVisibility
12:00 PM
Mon, Aug 29
55 °FSunny.3 mph55%30.30 "Hg9 mi
11:00 AM54 °FSunny.9 mph58%30.30 "Hg9 mi
10:00 AM52 °FSunny.8 mph62%30.29 "Hg9 mi
9:00 AM48 °FSunny.5 mph76%30.29 "Hg9 mi
8:00 AM45 °FSunny.5 mph87%30.28 "Hg9 mi
7:00 AM39 °FClear.6 mph93%30.27 "Hg9 mi
6:00 AM39 °FClear.5 mph93%30.26 "Hg9 mi
5:00 AM39 °FClear.5 mph93%30.24 "Hg9 mi
4:00 AM39 °FClear.5 mph93%30.23 "Hg9 mi
3:00 AM45 °FClear.8 mph81%30.22 "Hg9 mi
2:00 AM45 °FClear.9 mph87%30.20 "Hg9 mi
1:00 AM46 °FClear.9 mph82%30.19 "Hg9 mi
12:00 AM48 °FClear.12 mph76%30.17 "Hg9 mi
11:00 PM
Sun, Aug 28
50 °FPassing clouds.10 mph71%30.15 "Hg9 mi
10:00 PM50 °FClear.12 mph71%30.13 "Hg9 mi
9:00 PM54 °FPartly sunny.12 mph58%30.11 "Hg9 mi
8:00 PM55 °FPartly sunny.14 mph51%30.09 "Hg9 mi
7:00 PM57 °FOvercast.20 mph48%30.06 "Hg9 mi
6:00 PM57 °FPartly sunny.15 mph51%30.04 "Hg9 mi
5:00 PM59 °FPartly sunny.17 mph48%30.01 "Hg9 mi
4:00 PM55 °FOvercast.17 mph55%30.00 "Hg9 mi
3:00 PM52 °FOvercast.18 mph62%29.99 "Hg9 mi
2:00 PM52 °FOvercast.21 mph67%29.96 "Hg9 mi
1:00 PM50 °FOvercast.20 mph76%29.93 "Hg9 mi
Weather by CustomWeather, © 2016

See weather overviewHow to use our weather pages